Natchez, MS

2:10 AM CST on November 21, 2019 (GMT -0600)
Hardy-Anders-Adams County

Weather History for KHEZ - September, 2019

Change the Weather History Date:

Monday, September 9, 2019

  Actual Average Record
Temperature  
Mean Temperature 84 °F -  
Max Temperature 95 °F 89 °F 99 °F (1986)
Min Temperature 72 °F 68 °F 51 °F (2011)
Cooling Degree Days 18    
Growing Degree Days 34 (Base 50)    
Moisture  
Dew Point 71 °F    
Average Humidity 82    
Maximum Humidity 97    
Minimum Humidity 49    
Precipitation  
Precipitation 0.04 in - - ()
Sea Level Pressure  
Sea Level Pressure 30.06 in    
Wind  
Wind Speed 4 mph (East)    
Max Wind Speed 28 mph    
Max Gust Speed 33 mph    
Visibility 9 miles    
Events Rain , Thunderstorm    
Averages and records for this station are not official NWS values.
T = Trace of Precipitation, MM = Missing Value Source: NWS Daily Summary

Daily Weather History Graph

Daily Weather History Graph

Search for Another Location

Airport or City:

Astronomy

Sep. 09, 2019 Rise Set
Actual Time 6:45 AM CDT 7:19 PM CDT
Civil Twilight 6:21 AM CDT 7:43 PM CDT
Nautical Twilight 5:52 AM CDT 8:12 PM CDT
Astronomical Twilight 5:22 AM CDT 8:41 PM CDT
Moon 4:58 PM CDT (9/9) 2:34 AM CDT (9/9)
Length of Visible Light 13h 22m
Length of Day
12h 33m
Waxing Gibbous, 83% of the Moon is Illuminated
Sep 9
Waxing Gibbous
Sep 13
Full
Sep 21
Last Quarter
Sep 28
New
Oct 5
First Quarter

Hourly Weather History & Observations

Time (CDT) Temp. Heat Index Dew Point Humidity Pressure Visibility Wind Dir Wind Speed Gust Speed Precip Events Conditions
12:56 AM 78.1 °F - 73.9 °F 87% 30.01 in 10.0 mi Calm Calm - N/A   Clear
1:56 AM 77.0 °F - 73.9 °F 90% 30.01 in 10.0 mi Calm Calm - N/A   Clear
2:56 AM 75.9 °F - 73.0 °F 91% 30.02 in 10.0 mi Calm Calm - N/A   Clear
3:56 AM 75.9 °F - 73.0 °F 91% 30.03 in 10.0 mi Calm Calm - N/A   Clear
4:56 AM 75.0 °F - 73.0 °F 94% 30.04 in 9.0 mi Calm Calm - N/A   Clear
5:56 AM 73.9 °F - 73.0 °F 97% 30.06 in 7.0 mi Calm Calm - N/A   Partly Cloudy
6:56 AM 75.0 °F - 73.0 °F 94% 30.07 in 8.0 mi Calm Calm - N/A   Mostly Cloudy
7:56 AM 78.1 °F - 73.9 °F 87% 30.09 in 10.0 mi Calm Calm - N/A   Clear
8:56 AM 84.0 °F 90.2 °F 73.0 °F 69% 30.10 in 10.0 mi North 4.6 mph - N/A   Clear
9:56 AM 87.1 °F 94.5 °F 73.0 °F 63% 30.10 in 10.0 mi North 6.9 mph - N/A   Clear
10:56 AM 88.0 °F 94.7 °F 72.0 °F 59% 30.11 in 10.0 mi NNW 6.9 mph - N/A   Clear
11:56 AM 90.0 °F 97.9 °F 73.0 °F 57% 30.09 in 10.0 mi NNW 8.1 mph - N/A   Partly Cloudy
12:56 PM 91.9 °F 100.7 °F 73.0 °F 54% 30.08 in 10.0 mi Variable 3.5 mph - N/A   Clear
1:56 PM 93.9 °F 104.0 °F 73.9 °F 52% 30.05 in 10.0 mi West 3.5 mph - N/A   Clear
2:17 PM 95.0 °F 104.5 °F 73.4 °F 49% 30.04 in 10.0 mi Variable 3.5 mph - N/A Thunderstorm Clear
2:56 PM 78.1 °F - 69.1 °F 74% 30.05 in 5.0 mi NNW 27.6 mph 33.4 mph 0.01 in Rain , Thunderstorm Heavy Thunderstorms and Rain
3:00 PM 75.2 °F - 69.8 °F 83% 30.06 in 2.5 mi NNW 20.7 mph 33.4 mph 0.14 in Rain , Thunderstorm Heavy Thunderstorms and Rain
3:12 PM 75.2 °F - 69.8 °F 83% 30.06 in 7.0 mi ENE 9.2 mph - 0.23 in Rain , Thunderstorm Heavy Thunderstorms and Rain
3:31 PM 73.4 °F - 69.8 °F 88% 30.06 in 2.5 mi East 13.8 mph 21.9 mph 0.39 in Rain , Thunderstorm Heavy Thunderstorms and Rain
3:44 PM 73.4 °F - 69.8 °F 88% 30.06 in 6.0 mi Variable 6.9 mph - 0.52 in Rain , Thunderstorm Thunderstorms and Rain
4:09 PM 73.4 °F - 69.8 °F 88% 30.03 in 10.0 mi East 5.8 mph - 0.01 in Rain Light Rain
4:28 PM 73.4 °F - 69.8 °F 88% 30.04 in 10.0 mi East 9.2 mph - 0.01 in Thunderstorm Clear
4:56 PM 73.9 °F - 70.0 °F 87% 30.04 in 9.0 mi SE 11.5 mph - 0.01 in   Clear
5:05 PM 73.4 °F - 69.8 °F 88% 30.05 in 6.0 mi ESE 13.8 mph - N/A Thunderstorm Haze
5:34 PM 73.4 °F - 69.8 °F 88% 30.06 in 8.0 mi South 9.2 mph 18.4 mph N/A   Clear
5:56 PM 75.0 °F - 69.1 °F 82% 30.05 in 6.0 mi SSW 6.9 mph - N/A   Haze
6:56 PM 75.0 °F - 68.0 °F 79% 30.06 in 10.0 mi ESE 11.5 mph - 0.00 in Rain Light Rain
7:56 PM 73.0 °F - 70.0 °F 90% 30.08 in 10.0 mi ESE 6.9 mph - 0.02 in Rain Light Rain
8:56 PM 73.9 °F - 71.1 °F 91% 30.08 in 10.0 mi SE 3.5 mph - 0.00 in Rain Light Rain
9:56 PM 73.0 °F - 71.1 °F 93% 30.08 in 10.0 mi South 3.5 mph - 0.00 in   Clear
10:56 PM 72.0 °F - 71.1 °F 97% 30.10 in 10.0 mi NNW 4.6 mph - N/A   Clear
11:56 PM 72.0 °F - 71.1 °F 97% 30.11 in 9.0 mi East 3.5 mph - N/A   Clear